Location: Rounton
(54.4000°N, 1.3500°W)
Time: 06:15:10
(UTC+00:00)

A-11 Canister half - Pass Details

Date: 02 December 2021
Orbit: 1516 x 1684 km, 47.2° (Epoch: 21 January)

Event Time Altitude Azimuth Distance (km) Brightness Sun altitude
Rises 12:06:34 0° 275° (W) 4,872 11.6 13.5°
Reaches altitude 10° 12:09:48 10° 270° (W) 3,902 11.2 13.5°
Maximum altitude 12:19:16 49° 200° (SSW) 2,073 10.7 13.4°
Drops below altitude 10° 12:28:50 10° 130° (SE) 3,944 11.7 13.2°
Sets 12:32:07 0° 126° (SE) 4,926 12.0 13.2°
